Погода в Парфеньеве

Россия / Костромская область     58°28′57″N   43°24′27″E
темп.,
°C
ветер,
м/с
пор.,
м/с
влажн.,
%
обл.,
%
осадки,
мм/ч
давл.,
гПа
погр.,
м
13 апреля, вт
вт1300:00+4ююв41098100 0.0 1034385
03:00+4юв41197100 0.0 1033376
06:00+5ююв3998100 0.1 1032374
09:00+7ююв3997100 0.1 1031361
12:00+10ю4788100 0.0 1029398
15:00+15ю4973100 0.0 1027628
18:00+13ю31083100 0.0 1026312
21:00+9ю31293100 0.0 1026253
14 апреля, ср
ср1400:00+8ю3129288 0.0 1025229
03:00+6ю398899 0.0 1025159
06:00+6ю298754 0.0 1024169
09:00+12ю496471 0.0 1024337
12:00+16ю5951100 0.0 1022770
15:00+17ю4953100 0.0 1021932
18:00+14ююз41062100 0.0 1020350
21:00+10ю31079100 0.0 1020190
15 апреля, чт
чт1500:00+8ююз288171 0.0 1019140
03:00+7юз2281100 0.0 101920
06:00+7зсз118362 0.0 101910
09:00+11с337399 0.0 1019453
12:00+8ссв5883100 0.0 1021532
15:00+5св61282100 0.0 1023607
18:00+4св51290100 0.4 1025558
21:00+4св31185100 1.0 1026718
16 апреля, пт
пт1600:00+3св41272100 0.0 1027655
03:00+2св4127278 0.0 1028498
06:00+1св4127493 0.0 1029470
09:00+5всв58528 0.0 1029757
12:00+9всв46390 0.0 10291105
15:00+10св45355 0.0 10291275
18:00+8св36475 0.0 1029325
21:00+4св38682 0.0 1030149
17 апреля, сб
сб1700:00+2св26738 0.0 1031100
03:00+1ссв247631 0.0 103268
06:00+1ссв25730 0.0 1032110
09:00+7св24501 0.0 1032645
12:00+10ссв34445 0.0 10321454
15:00+11с464242 0.0 10311871
18:00+9ссв47515 0.0 1031804
21:00+5ссз287155 0.0 1030153